Time,TemperatureF,DewpointF,PressureIn,WindDirection,WindDirectionDegrees,WindSpeedMPH,WindSpeedGustMPH,Humidity,HourlyPrecipIn,Conditions,Clouds,dailyrainin,SoftwareType,DateUTC
2013-08-02 00:15:00,61.9,59.2,29.55,West,278,0.0,0.0,91,0.00,,,0.00,Wunderground v.1.12,2013-08-02 04:15:00,
2013-08-02 00:45:00,62.2,59.8,29.54,West,277,0.0,0.0,92,0.00,,,0.00,Wunderground v.1.12,2013-08-02 04:45:00,
2013-08-02 01:15:00,62.1,59.4,29.54,West,260,0.0,0.0,91,0.00,,,0.00,Wunderground v.1.12,2013-08-02 05:15:00,
2013-08-02 01:45:00,62.0,59.6,29.54,WSW,253,0.0,0.0,92,0.00,,,0.00,Wunderground v.1.12,2013-08-02 05:45:00,
2013-08-02 02:15:00,61.3,59.0,29.54,N/A,-737280,0.0,0.0,92,0.00,,,0.00,Wunderground v.1.12,2013-08-02 06:15:00,
2013-08-02 02:16:00,61.1,58.5,29.53,WSW,253,0.0,0.0,91,0.00,,,0.00,Wunderground v.1.12,2013-08-02 06:16:00,
2013-08-02 02:46:00,61.0,58.7,29.53,WSW,253,0.0,0.0,92,0.00,,,0.00,Wunderground v.1.12,2013-08-02 06:46:00,
2013-08-02 03:15:00,61.5,59.2,29.54,WSW,248,0.0,3.0,92,0.00,,,0.00,Wunderground v.1.12,2013-08-02 07:15:00,
2013-08-02 03:16:00,61.7,59.4,29.53,WSW,253,1.0,1.0,92,0.00,,,0.00,Wunderground v.1.12,2013-08-02 07:16:00,
2013-08-02 03:45:00,60.9,58.6,29.54,WSW,253,0.0,0.0,92,0.00,,,0.00,Wunderground v.1.12,2013-08-02 07:45:00,
2013-08-02 04:15:00,60.3,58.0,29.55,N/A,-737280,0.0,0.0,92,0.00,,,0.00,Wunderground v.1.12,2013-08-02 08:15:00,
2013-08-02 04:16:00,60.2,57.9,29.54,WSW,253,0.0,0.0,92,0.00,,,0.00,Wunderground v.1.12,2013-08-02 08:16:00,
2013-08-02 04:45:00,59.5,57.2,29.55,WSW,253,0.0,0.0,92,0.00,,,0.00,Wunderground v.1.12,2013-08-02 08:45:00,
2013-08-02 05:15:00,58.6,56.0,29.57,N/A,-737280,0.0,0.0,91,0.00,,,0.00,Wunderground v.1.12,2013-08-02 09:15:00,
2013-08-02 05:16:00,58.7,56.1,29.56,WSW,253,0.0,0.0,91,0.00,,,0.00,Wunderground v.1.12,2013-08-02 09:16:00,
2013-08-02 05:45:00,58.1,55.5,29.56,WSW,253,0.0,0.0,91,0.00,,,0.00,Wunderground v.1.12,2013-08-02 09:45:00,
2013-08-02 06:15:00,57.8,55.2,29.58,N/A,-737280,0.0,0.0,91,0.00,,,0.00,Wunderground v.1.12,2013-08-02 10:15:00,
2013-08-02 06:16:00,57.7,55.1,29.57,WSW,253,0.0,0.0,91,0.00,,,0.00,Wunderground v.1.12,2013-08-02 10:16:00,
2013-08-02 06:45:00,58.0,55.4,29.57,WSW,252,0.0,0.0,91,0.00,,,0.00,Wunderground v.1.12,2013-08-02 10:45:00,
2013-08-02 07:15:00,59.0,55.8,29.58,WSW,248,1.0,6.0,89,0.00,,,0.00,Wunderground v.1.12,2013-08-02 11:15:00,
2013-08-02 07:16:00,58.9,55.7,29.57,WSW,253,0.0,0.0,89,0.00,,,0.00,Wunderground v.1.12,2013-08-02 11:16:00,
2013-08-02 07:45:00,61.3,58.0,29.58,West,263,0.0,0.0,89,0.00,,,0.00,Wunderground v.1.12,2013-08-02 11:45:00,
2013-08-02 08:15:00,63.3,58.4,29.59,West,270,2.0,7.0,84,0.00,,,0.00,Wunderground v.1.12,2013-08-02 12:15:00,
2013-08-02 08:16:00,63.2,58.9,29.58,West,264,0.0,0.0,86,0.00,,,0.00,Wunderground v.1.12,2013-08-02 12:16:00,
2013-08-02 08:45:00,67.5,61.1,29.58,West,269,3.0,3.0,80,0.00,,,0.00,Wunderground v.1.12,2013-08-02 12:45:00,
2013-08-02 09:15:00,68.2,59.6,29.59,West,270,1.0,7.0,74,0.00,,,0.00,Wunderground v.1.12,2013-08-02 13:15:00,
2013-08-02 09:16:00,68.3,60.1,29.58,West,259,1.0,1.0,75,0.00,,,0.00,Wunderground v.1.12,2013-08-02 13:16:00,
2013-08-02 09:45:00,69.0,59.2,29.58,NW,316,2.0,2.0,71,0.00,,,0.00,Wunderground v.1.12,2013-08-02 13:45:00,
2013-08-02 10:15:00,69.3,59.5,29.59,West,270,2.0,9.0,71,0.00,,,0.00,Wunderground v.1.12,2013-08-02 14:15:00,
2013-08-02 10:16:00,68.5,58.3,29.58,West,264,5.0,5.0,70,0.00,,,0.00,Wunderground v.1.12,2013-08-02 14:16:00,
2013-08-02 10:45:00,72.1,61.8,29.59,West,279,6.0,6.0,70,0.00,,,0.00,Wunderground v.1.12,2013-08-02 14:45:00,
2013-08-02 11:15:00,73.4,61.3,29.58,West,270,4.0,12.0,66,0.00,,,0.00,Wunderground v.1.12,2013-08-02 15:15:00,
2013-08-02 11:16:00,73.6,61.5,29.58,WSW,255,0.0,0.0,66,0.00,,,0.00,Wunderground v.1.12,2013-08-02 15:16:00,
2013-08-02 11:45:00,74.0,61.5,29.58,West,266,0.0,0.0,65,0.00,,,0.00,Wunderground v.1.12,2013-08-02 15:45:00,
2013-08-02 12:15:00,74.7,60.8,29.57,West,270,4.0,12.0,62,0.00,,,0.00,Wunderground v.1.12,2013-08-02 16:15:00,
2013-08-02 12:16:00,75.2,63.1,29.57,West,273,7.0,7.0,66,0.00,,,0.00,Wunderground v.1.12,2013-08-02 16:16:00,
2013-08-02 12:45:00,76.4,62.9,29.57,West,272,4.0,4.0,63,0.00,,,0.00,Wunderground v.1.12,2013-08-02 16:45:00,
2013-08-02 13:15:00,75.6,60.7,29.56,West,270,4.0,13.0,60,0.00,,,0.00,Wunderground v.1.12,2013-08-02 17:15:00,
2013-08-02 13:16:00,75.6,60.3,29.56,WNW,297,6.0,6.0,59,0.00,,,0.00,Wunderground v.1.12,2013-08-02 17:16:00,
2013-08-02 13:46:00,78.0,63.0,29.56,West,270,6.0,6.0,60,0.00,,,0.00,Wunderground v.1.12,2013-08-02 17:46:00,
2013-08-02 14:15:00,77.0,62.5,29.56,West,270,4.0,13.0,61,0.00,,,0.00,Wunderground v.1.12,2013-08-02 18:15:00,
2013-08-02 14:16:00,77.5,60.1,29.55,West,265,6.0,6.0,55,0.00,,,0.00,Wunderground v.1.12,2013-08-02 18:16:00,
2013-08-02 14:45:00,71.5,60.0,29.55,West,280,5.0,5.0,67,0.00,,,0.00,Wunderground v.1.12,2013-08-02 18:45:00,
2013-08-02 15:15:00,67.3,60.6,29.57,West,270,1.0,13.0,79,0.06,,,0.06,Wunderground v.1.12,2013-08-02 19:15:00,
2013-08-02 15:16:00,67.1,59.3,29.56,West,273,0.0,0.0,76,0.00,,,0.00,Wunderground v.1.12,2013-08-02 19:16:00,
2013-08-02 15:45:00,64.9,59.3,29.56,West,278,0.0,0.0,82,0.00,,,0.00,Wunderground v.1.12,2013-08-02 19:45:00,
2013-08-02 16:15:00,69.5,62.0,29.55,West,270,2.0,10.0,77,0.02,,,0.08,Wunderground v.1.12,2013-08-02 20:15:00,
2013-08-02 16:16:00,69.3,62.5,29.55,West,262,0.0,0.0,79,0.00,,,0.00,Wunderground v.1.12,2013-08-02 20:16:00,
2013-08-02 16:45:00,73.1,63.5,29.53,West,278,10.0,10.0,72,0.00,,,0.00,Wunderground v.1.12,2013-08-02 20:45:00,
2013-08-02 17:15:00,72.9,60.4,29.54,West,270,5.0,15.0,65,0.00,,,0.08,Wunderground v.1.12,2013-08-02 21:15:00,
2013-08-02 17:16:00,72.5,60.1,29.53,West,274,6.0,6.0,65,0.00,,,0.00,Wunderground v.1.12,2013-08-02 21:16:00,
2013-08-02 17:45:00,72.2,59.3,29.53,West,262,11.0,11.0,64,0.00,,,0.00,Wunderground v.1.12,2013-08-02 21:45:00,
2013-08-02 18:16:00,71.0,59.1,29.54,WNW,287,3.0,3.0,66,0.00,,,0.00,Wunderground v.1.12,2013-08-02 22:16:00,
2013-08-02 18:45:00,69.5,59.7,29.54,West,265,0.0,0.0,71,0.00,,,0.00,Wunderground v.1.12,2013-08-02 22:45:00,
2013-08-02 19:15:00,68.9,58.7,29.54,West,270,4.0,13.0,70,0.00,,,0.08,Wunderground v.1.12,2013-08-02 23:15:00,
2013-08-02 19:16:00,68.9,58.3,29.54,West,267,2.0,2.0,69,0.00,,,0.00,Wunderground v.1.12,2013-08-02 23:16:00,
2013-08-02 19:45:00,67.9,57.4,29.54,West,276,3.0,3.0,69,0.00,,,0.00,Wunderground v.1.12,2013-08-02 23:45:00,
2013-08-02 20:15:00,66.5,57.6,29.54,West,270,1.0,6.0,73,0.00,,,0.08,Wunderground v.1.12,2013-08-03 00:15:00,
2013-08-02 20:16:00,66.5,57.2,29.54,West,274,0.0,0.0,72,0.00,,,0.00,Wunderground v.1.12,2013-08-03 00:16:00,
2013-08-02 20:45:00,65.3,56.8,29.54,SSW,205,0.0,0.0,74,0.00,,,0.00,Wunderground v.1.12,2013-08-03 00:45:00,
2013-08-02 21:15:00,63.9,57.3,29.56,SW,225,0.0,5.0,79,0.00,,,0.08,Wunderground v.1.12,2013-08-03 01:15:00,
2013-08-02 21:16:00,64.0,57.0,29.55,SW,220,0.0,0.0,78,0.00,,,0.00,Wunderground v.1.12,2013-08-03 01:16:00,
2013-08-02 21:45:00,64.3,58.0,29.55,West,262,5.0,5.0,80,0.00,,,0.00,Wunderground v.1.12,2013-08-03 01:45:00,
2013-08-02 22:15:00,64.8,58.5,29.56,West,270,2.0,8.0,80,0.00,,,0.08,Wunderground v.1.12,2013-08-03 02:15:00,
2013-08-02 22:16:00,64.9,58.2,29.54,West,275,0.0,0.0,79,0.00,,,0.00,Wunderground v.1.12,2013-08-03 02:16:00,
2013-08-02 22:45:00,64.8,58.5,29.56,West,260,2.0,2.0,80,0.00,,,0.00,Wunderground v.1.12,2013-08-03 02:45:00,
2013-08-02 23:15:00,64.7,58.7,29.56,West,270,2.0,8.0,81,0.01,,,0.09,Wunderground v.1.12,2013-08-03 03:15:00,
2013-08-02 23:16:00,64.7,58.4,29.56,WSW,241,2.0,2.0,80,0.00,,,0.00,Wunderground v.1.12,2013-08-03 03:16:00,
2013-08-02 23:46:00,63.9,58.0,29.54,West,277,0.0,0.0,81,0.00,,,0.00,Wunderground v.1.12,2013-08-03 03:46:00,